Weather History for Frankfort, KY

Change the Weather History Date:

Thursday, March 21, 2013

  Actual Average Record
Temperature  
Mean Temperature 27 °F 47 °F  
Max Temperature 34 °F 58 °F 83 °F (1907)
Min Temperature 19 °F 35 °F 18 °F (1986)
Degree Days  
Heating Degree Days 38 19  
Month to date heating degree days 557 460  
Since 1 July heating degree days 4095 4099  
Cooling Degree Days 0 0  
Month to date cooling degree days 0 0  
Year to date cooling degree days 0 0  
Moisture  
Dew Point 12 °F    
Average Humidity 54    
Maximum Humidity 73    
Minimum Humidity 35    
Precipitation  
Precipitation T in 0.14 in 1.68 in (1927)
Month to date precipitation 3.30 2.89  
Year to date precipitation 9.94 9.44  
Sea Level Pressure  
Sea Level Pressure 30.03 in    
Wind  
Wind Speed 5 mph (WNW)    
Max Wind Speed 14 mph    
Max Gust Speed 20 mph    
Visibility 8 miles    
Events Snow    
T = Trace of Precipitation, MM = Missing Value Source: NWS Daily Summary

Daily Weather History Graph

Daily Weather History Graph

Search for Another Location

Airport:

Trip Planner

Search our weather history database for the weather conditions in past years. The results will help you decide how hot, cold, wet, or windy it might be!

Date:

Astronomy

Mar. 21, 2013 Rise Set
Actual Time 7:41 AM EDT 7:52 PM EDT
Civil Twilight 7:14 AM EDT 8:19 PM EDT
Nautical Twilight 6:44 AM EDT 8:49 PM EDT
Astronomical Twilight 6:12 AM EDT 9:21 PM EDT
Moon 2:26 PM EDT (3/21) 3:58 AM EDT (3/21)
Length of Visible Light 13h 04m
Length of Day
12h 11m
Waxing Gibbous, 68% of the Moon is Illuminated
Mar 21
Waxing Gibbous
Mar 27
Full
Apr 3
Last Quarter
Apr 10
New
Apr 18
First Quarter

Hourly Weather History & Observations

Time (EDT) Temp. Windchill Dew Point Humidity Pressure Visibility Wind Dir Wind Speed Gust Speed Precip Events Conditions
12:53 AM 21.9 °F 17.2 °F 12.0 °F 66% 30.04 in 10.0 mi West 3.5 mph - N/A   Clear
2:53 AM 19.9 °F 12.1 °F 12.0 °F 71% 30.02 in 10.0 mi WSW 5.8 mph - N/A   Clear
3:53 AM 19.9 °F 13.4 °F 12.9 °F 74% 30.01 in 10.0 mi WSW 4.6 mph - N/A   Clear
4:53 AM 19.9 °F 14.9 °F 12.0 °F 71% 29.99 in 10.0 mi WSW 3.5 mph - N/A   Clear
5:53 AM 19.0 °F 13.9 °F 10.9 °F 71% 29.99 in 10.0 mi WSW 3.5 mph - N/A   Clear
6:53 AM 19.9 °F 13.4 °F 10.0 °F 65% 29.99 in 10.0 mi WNW 4.6 mph - N/A   Overcast
7:53 AM 19.9 °F 13.4 °F 10.0 °F 65% 30.00 in 10.0 mi West 4.6 mph - N/A   Overcast
8:53 AM 21.9 °F 14.5 °F 12.0 °F 66% 30.01 in 10.0 mi WNW 5.8 mph - N/A   Partly Cloudy
9:16 AM 23.0 °F 13.1 °F 12.2 °F 63% 29.99 in 10.0 mi WNW 9.2 mph - N/A   Mostly Cloudy
9:53 AM 21.9 °F 11.7 °F 16.0 °F 78% 30.04 in 1.8 mi NW 9.2 mph - 0.00 in Snow Light Snow
10:00 AM 21.2 °F 12.6 °F 15.8 °F 80% 30.01 in 2.5 mi WNW 6.9 mph - 0.00 in Snow Light Snow
10:03 AM 23.0 °F 12.4 °F 15.8 °F 74% 30.01 in 4.0 mi NW 10.4 mph 16.1 mph 0.00 in Snow Light Snow
10:20 AM 24.8 °F 16.1 °F 14.0 °F 64% 30.02 in 10.0 mi NW 8.1 mph 17.3 mph 0.00 in   Overcast
10:46 AM 21.2 °F 8.9 °F 15.8 °F 80% 30.02 in 1.8 mi NW 12.7 mph 17.3 mph 0.00 in Snow Light Snow
10:53 AM 21.9 °F 11.7 °F 15.1 °F 75% 30.06 in 1.2 mi WNW 9.2 mph - 0.00 in Snow Light Snow
10:58 AM 21.2 °F 12.6 °F 14.0 °F 74% 30.02 in 3.0 mi WNW 6.9 mph - 0.00 in Snow Light Snow
11:16 AM 24.8 °F 14.6 °F 12.2 °F 59% 30.03 in 10.0 mi NW 10.4 mph 17.3 mph 0.00 in   Mostly Cloudy
11:53 AM 27.0 °F 18.0 °F 10.9 °F 51% 30.06 in 10.0 mi NNW 9.2 mph 17.3 mph 0.00 in   Overcast
12:53 PM 25.0 °F 16.3 °F 12.0 °F 58% 30.06 in 5.0 mi WNW 8.1 mph - 0.00 in Snow Light Snow
1:53 PM 27.0 °F 18.7 °F 10.0 °F 49% 30.07 in 10.0 mi NW 8.1 mph - 0.00 in   Overcast
2:53 PM 28.0 °F 20.8 °F 10.9 °F 49% 30.06 in 10.0 mi West 6.9 mph - N/A   Overcast
3:53 PM 30.9 °F 22.2 °F 10.0 °F 42% 30.04 in 10.0 mi West 10.4 mph - N/A   Overcast
4:53 PM 33.1 °F 26.9 °F 9.0 °F 37% 30.03 in 10.0 mi West 6.9 mph - N/A   Clear
5:53 PM 30.9 °F 26.2 °F 9.0 °F 40% 30.02 in 10.0 mi Variable 4.6 mph - N/A   Clear
6:53 PM 32.0 °F 28.7 °F 9.0 °F 38% 30.02 in 10.0 mi SW 3.5 mph - N/A   Clear
7:53 PM 30.0 °F 26.5 °F 9.0 °F 41% 30.03 in 10.0 mi NW 3.5 mph - N/A   Clear
8:53 PM 26.1 °F - 14.0 °F 60% 30.05 in 10.0 mi Calm Calm - N/A   Clear
9:53 PM 24.1 °F - 15.1 °F 69% 30.06 in 10.0 mi Calm Calm - N/A   Clear
10:53 PM 21.9 °F - 14.0 °F 72% 30.07 in 10.0 mi Calm Calm - N/A   Clear
11:53 PM 21.0 °F - 14.0 °F 74% 30.07 in 10.0 mi Calm Calm - N/A   Clear